Temperature
8 8 8 8 8 8 8 8 9 9 9 10 10 10 11 11 11 12 11 11 11 11 11 12 12 12 12 13 13 13 13 13 13 13 13 13 13 14 14 14 14 14 14 14
8 8 8 8 8 8 8 8 9 9 9 9 10 10 10 10 11 11 11 11 11 11 11 11 12 12 12 12 13 13 13 13 13 13 13 14 13 14 14 14 14 14 14 14
8 8 7 8 8 8 8 8 8 9 9 10 10 10 10 10 10 10 10 10 11 11 11 11 11 11 12 12 12 12 13 13 13 13 13 13 13 13 13 13 13 14 14 14
7 7 7 8 8 8 8 8 8 9 9 9 10 10 10 10 11 11 10 10 10 10 10 10 11 11 11 12 12 12 12 12 13 13 13 13 13 13 13 13 13 13 13 13
7 7 7 7 7 7 8 8 8 9 9 9 9 10 10 10 10 11 10 10 9 9 10 10 10 10 11 11 12 12 12 12 12 12 12 12 12 13 13 13 13 13 13 13
7 7 7 7 7 7 8 8 8 9 9 9 9 10 10 10 10 10 10 9 9 9 9 9 10 10 11 11 11 12 12 12 12 12 12 12 12 12 12 12 12 12 12 12
7 7 7 7 7 8 8 8 9 9 9 9 9 9 9 9 9 9 9 8 8 8 9 9 9 10 10 11 11 11 11 11 11 11 12 12 12 12 12 12 12 12 12 12
7 7 7 7 7 7 7 8 9 9 10 10 9 9 9 9 9 8 8 8 7 8 8 8 9 9 10 10 10 11 11 11 11 11 11 11 11 11 11 11 11 11 11 12
7 7 7 7 7 7 8 8 7 8 8 9 10 9 10 9 9 8 8 8 7 7 7 8 8 9 9 10 10 10 10 10 11 11 11 11 11 11 11 11 11 11 11 11
6 6 7 7 7 7 8 7 8 8 9 10 10 10 10 9 8 8 8 8 7 7 7 7 7 8 9 9 9 10 10 10 10 10 10 10 10 10 10 10 10 10 11 11
6 6 7 7 7 7 7 7 7 8 8 10 10 10 9 8 8 8 7 7 6 6 6 7 7 7 8 9 9 9 9 9 10 10 10 10 10 10 10 10 10 10 10 10
6 7 7 7 7 6 7 7 8 8 8 8 9 9 8 8 7 7 7 6 6 6 6 6 7 7 7 8 8 9 9 9 9 9 9 10 9 9 9 9 9 9 10 10
6 7 7 8 7 7 7 7 7 7 8 8 9 9 8 8 7 6 6 6 6 6 6 6 6 7 7 7 8 8 8 8 8 9 9 9 9 9 9 9 9 9 9 9
6 7 8 8 8 7 7 7 7 7 8 8 8 8 8 7 7 6 6 5 5 5 5 5 6 6 6 6 7 7 7 8 8 8 8 8 8 8 9 9 9 9 9 9
7 7 6 6 6 6 7 7 7 7 7 8 8 8 8 7 7 6 5 5 5 4 4 5 5 5 5 6 6 6 6 7 7 7 7 8 8 8 8 8 8 8 8 8
6 7 6 6 6 6 6 7 7 7 7 7 7 7 7 6 5 5 5 4 4 4 4 4 4 4 4 5 5 6 6 6 6 6 7 7 7 7 7 7 7 7 7 7
6 7 7 8 6 7 7 7 7 6 6 7 7 7 6 6 5 5 4 4 3 3 3 3 4 4 4 4 4 5 5 5 5 6 6 6 6 6 6 6 6 6 6 7
6 6 7 7 7 7 8 6 6 6 6 6 6 6 5 5 4 3 3 3 3 3 3 3 3 3 4 4 4 4 4 4 4 5 5 5 5 5 5 5 6 6 6 6
5 6 6 7 7 8 7 5 5 6 6 6 5 5 4 3 4 4 3 2 2 2 2 3 3 3 3 3 3 4 4 4 4 4 4 4 5 5 5 5 5 5 5 5
4 5 6 6 7 8 8 6 4 6 6 5 5 4 4 4 6 5 3 2 2 2 2 2 2 3 3 3 3 3 3 3 3 4 4 4 4 4 4 4 4 4 4 5
4 5 6 6 7 8 6 5 5 7 8 4 4 4 3 4 4 3 2 2 2 2 2 2 2 2 2 2 2 2 2 3 3 3 3 3 4 4 4 4 4 4 4 4
5 6 5 6 6 7 5 4 6 7 4 3 3 3 2 2 2 2 1 1 1 1 1 1 1 1 2 1 2 2 2 2 2 2 2 3 3 3 3 3 3 3 3 3
5 6 6 6 7 5 4 4 4 3 3 3 2 2 2 2 1 1 1 1 1 1 1 1 1 1 1 1 1 1 1 1 2 2 2 2 2 2 2 2 2 2 2 2
4 3 4 4 5 4 3 2 3 3 3 3 2 2 2 1 1 1 1 0 0 0 0 0 0 0 0 0 0 0 0 1 1 1 1 1 1 2 2 2 2 2 2 2
5 3 4 4 4 3 2 2 2 2 2 2 2 2 1 1 1 0 0 -0 -0 -0 -0 -0 -0 -0 -0 -0 -0 -0 0 0 0 0 1 1 1 1 1 1 1 1 1 1
3 3 4 6 5 4 4 3 3 2 2 2 1 1 1 1 0 0 -0 -1 -1 -1 -1 -1 -1 -1 -1 -1 -1 -0 -0 -0 -0 -0 -0 -0 -0 -0 0 0 1 1 1 1
Wind_Speed
0 1 2 3 4 4 4 4 4 5 4 3 2 4 5 5 3 3 2 3 2 2 1 1 2 1 0 3 6 9 9 10 10 9 9 8 8 8 8 9 12 14 14 15
2 1 3 4 2 2 3 3 3 3 2 2 1 3 4 3 1 1 1 1 1 0 1 2 3 2 1 1 3 5 7 8 9 8 8 7 7 7 7 7 10 13 14 14
1 2 3 1 1 1 1 2 3 2 2 0 0 1 2 3 3 3 3 2 2 2 2 2 3 1 1 0 2 3 5 8 9 8 6 6 5 5 6 7 8 10 13 13
1 3 2 1 2 2 1 2 2 1 1 1 2 0 3 4 4 5 5 5 4 4 3 3 2 2 1 0 2 3 4 5 6 7 8 9 8 7 7 7 7 9 11 12
1 3 3 2 3 3 2 3 2 1 0 1 2 0 2 4 5 6 6 6 5 4 4 3 2 1 1 0 1 3 3 3 4 6 7 8 8 7 6 7 9 8 8 9
1 1 2 3 3 2 2 2 0 1 1 1 2 1 3 4 4 5 6 6 5 5 4 3 3 2 2 1 2 2 3 3 3 5 5 7 7 6 6 8 8 8 7 7
1 1 2 2 1 1 2 1 0 1 1 2 2 1 2 4 5 4 5 5 5 5 5 4 4 4 3 2 2 2 2 2 3 4 4 5 6 6 7 7 7 7 7 6
1 1 3 3 2 2 2 2 2 1 1 1 1 1 2 5 5 5 5 5 6 6 6 6 6 5 4 3 2 3 1 1 1 2 3 4 4 4 4 5 5 5 6 6
1 1 1 2 2 2 1 2 2 1 1 1 1 1 1 5 6 7 7 7 7 7 8 7 7 6 6 5 4 2 1 1 0 1 3 3 3 3 3 4 5 5 5 4
0 1 1 2 1 2 2 1 0 0 1 2 1 1 2 4 5 6 7 8 8 8 8 8 8 7 7 6 5 4 3 2 1 0 1 1 2 3 3 3 4 5 5 5
1 1 1 1 1 2 1 1 1 1 1 0 1 2 4 3 3 5 6 7 7 8 8 8 8 7 7 6 5 5 4 4 3 2 0 0 1 2 3 3 4 4 5 6
1 0 1 0 1 2 1 1 1 0 1 0 0 2 4 4 4 5 6 6 7 8 8 7 8 7 7 7 6 6 5 5 4 3 2 1 1 1 2 2 3 3 4 4
2 1 1 2 2 1 1 1 1 0 1 0 1 2 4 4 5 5 6 7 7 8 8 8 8 8 8 7 6 6 5 4 4 3 2 2 2 1 1 2 2 3 3 4
2 1 1 1 1 1 1 0 1 2 1 1 1 1 1 3 4 5 6 7 7 8 8 8 8 8 8 7 6 6 5 5 4 3 2 2 2 2 2 2 2 2 3 3
1 1 2 1 1 0 0 0 2 3 2 2 1 1 1 2 3 4 5 6 7 8 9 8 8 7 7 7 7 6 6 5 5 4 3 3 2 2 2 1 2 2 2 3
1 2 2 1 2 1 1 2 2 3 3 3 3 3 3 2 3 4 5 6 7 7 8 8 8 8 7 8 7 7 6 6 5 4 4 3 3 2 2 2 2 2 2 3
2 2 2 1 2 2 3 3 4 3 3 3 3 2 1 2 3 3 4 5 5 7 8 8 8 7 7 8 7 7 6 6 5 4 4 3 3 3 3 2 2 3 3 3
3 2 1 1 1 2 1 2 2 3 3 3 2 1 1 2 3 2 3 4 6 7 8 8 8 8 7 7 7 6 6 5 5 4 4 4 3 3 3 3 3 3 3 3
1 2 2 2 2 3 2 2 2 3 2 3 3 2 1 3 2 1 2 5 6 7 7 7 8 8 7 7 7 6 6 5 5 5 5 5 4 4 3 3 3 3 3 3
1 1 2 2 3 3 2 3 2 2 3 3 3 2 1 1 3 2 3 6 7 7 7 7 7 7 7 8 7 6 6 5 6 6 6 5 5 4 4 4 4 3 3 3
4 3 4 4 4 4 2 4 4 4 1 4 4 3 3 2 3 3 4 5 6 7 8 8 7 7 7 7 7 6 6 6 7 6 6 5 5 4 4 3 3 3 2 3
7 6 6 5 6 5 6 7 6 1 3 4 3 3 3 3 3 3 4 5 6 7 8 8 7 7 7 7 6 7 7 7 7 6 5 5 5 4 3 3 2 2 3 3
7 6 4 6 3 2 6 4 2 2 3 3 3 2 3 3 3 4 4 5 6 7 7 7 8 7 7 7 6 7 7 7 7 6 6 5 5 4 4 3 2 2 3 3
5 4 4 5 6 5 6 5 4 3 3 3 3 2 3 3 4 5 5 5 5 6 7 7 7 7 7 7 7 7 7 7 6 6 6 5 4 4 4 2 2 2 3 3
6 8 6 6 4 4 7 8 7 5 4 3 3 2 3 4 4 5 5 5 5 6 6 6 7 7 8 8 7 7 6 6 6 6 5 5 4 4 3 3 2 3 3 3
8 9 8 7 7 6 6 7 8 7 6 5 4 3 4 4 5 5 5 5 6 6 6 7 7 8 8 8 7 7 6 6 6 5 5 4 4 4 3 3 3 2 3 3
Wind_Direction
276 205 251 281 271 265 254 245 268 290 295 294 255 286 312 316 278 233 219 205 183 209 261 123 115 115 174 156 179 181 184 184 177 178 178 180 186 186 191 197 199 199 198 196
158 274 309 301 285 251 226 238 269 303 313 293 282 305 327 335 307 268 197 165 130 144 98 79 87 67 32 127 162 181 187 185 183 187 181 183 183 189 193 195 202 203 202 200
104 340 320 292 307 7 302 262 273 290 343 236 231 9 51 57 58 55 63 82 75 55 57 63 69 67 38 113 179 195 193 188 182 182 177 178 179 184 191 196 201 204 203 202
29 339 317 331 353 339 344 326 276 259 275 19 333 104 56 47 53 52 50 53 44 33 40 56 54 29 23 210 180 203 190 192 183 177 183 188 198 206 205 197 200 202 204 202
39 353 349 356 340 329 341 330 312 258 106 53 10 224 59 46 51 42 37 36 28 26 31 37 27 343 328 60 148 186 173 178 188 191 191 198 209 212 205 197 198 200 203 203
26 335 335 334 328 318 308 307 273 187 201 69 2 350 59 29 10 20 28 28 22 31 36 24 6 5 4 48 119 139 149 165 180 181 190 199 205 207 210 202 197 202 202 202
45 52 11 330 331 30 351 307 171 121 77 51 15 12 49 16 7 12 16 18 21 32 38 30 18 19 18 48 83 115 146 176 174 164 182 198 199 198 206 210 204 202 201 200
90 68 15 1 349 337 359 339 358 33 73 66 36 34 39 19 30 41 39 34 35 34 35 31 23 17 17 32 59 87 102 135 166 161 183 198 193 201 208 209 204 206 205 201
101 63 20 358 348 326 4 34 356 56 69 79 60 39 48 32 38 41 40 38 37 30 26 25 25 25 20 24 28 50 61 37 122 180 188 181 186 207 205 206 201 208 213 204
109 132 8 331 280 48 3 9 282 62 80 93 80 43 359 356 20 31 30 26 24 23 24 24 24 22 19 21 20 28 36 358 331 64 146 155 187 217 210 207 210 209 209 203
170 114 37 34 18 3 38 48 19 65 358 17 107 72 16 8 20 25 21 19 16 14 16 20 21 19 18 18 19 23 22 16 16 17 5 183 237 230 201 206 212 212 209 204
156 115 92 330 349 320 310 323 286 324 63 2 100 67 31 32 33 30 23 20 23 21 18 18 19 19 17 13 13 13 9 8 5 1 359 355 303 252 190 201 218 220 214 211
168 178 149 155 161 155 298 316 241 86 105 143 149 105 42 40 38 27 25 21 21 20 18 17 18 17 12 8 8 7 2 356 355 359 2 343 319 289 233 222 227 226 218 215
175 153 282 96 62 168 246 30 177 177 180 169 198 174 30 20 17 15 15 13 16 20 19 16 12 11 6 1 2 1 358 352 349 349 348 332 310 287 264 245 235 226 218 214
173 130 93 48 8 130 113 182 171 189 221 218 186 216 304 342 353 6 9 8 14 15 13 11 8 3 358 356 356 356 353 351 347 344 340 331 315 298 275 250 243 237 227 221
137 146 131 84 46 54 328 278 217 221 227 224 248 278 337 341 9 12 7 7 6 4 2 360 360 355 353 349 346 345 345 344 341 340 335 330 318 304 284 272 258 240 230 223
157 164 182 205 323 284 267 253 212 194 195 210 233 267 353 344 343 347 346 354 357 354 352 350 349 346 342 339 337 337 338 337 335 332 327 321 310 297 288 274 257 246 238 229
162 160 180 222 258 238 83 62 186 197 215 221 237 286 339 323 311 321 341 351 351 348 345 342 339 336 334 332 333 334 335 335 334 330 327 323 307 292 282 269 257 251 241 229
209 181 174 201 250 267 216 191 188 203 231 216 226 245 330 343 305 281 19 355 344 341 337 333 332 328 328 333 333 332 334 337 336 333 328 322 310 292 277 268 262 256 245 232
112 199 198 195 233 241 152 149 168 198 230 172 191 206 231 321 287 307 346 338 338 341 339 335 332 332 335 337 335 333 333 333 331 328 323 317 309 297 284 274 270 264 247 230
173 187 203 212 240 259 153 150 165 206 204 144 176 186 197 236 285 316 323 328 334 336 337 339 336 335 335 335 335 331 330 329 328 324 321 319 315 309 296 283 273 257 231 219
189 187 195 195 219 237 150 159 195 217 101 150 174 196 219 254 290 302 312 320 326 331 333 336 335 333 333 333 333 328 325 325 325 322 318 318 320 317 301 285 275 254 225 214
212 211 206 209 217 80 167 184 170 140 166 177 190 213 223 253 274 289 299 308 317 322 326 329 329 326 329 330 328 321 321 323 322 319 316 316 318 314 307 290 270 254 227 214
213 205 217 240 241 217 204 206 197 189 190 184 193 205 224 256 272 282 291 299 309 315 319 322 321 319 320 323 322 319 319 321 318 313 311 310 311 311 311 305 275 250 237 226
196 180 208 237 237 216 219 212 204 192 184 181 191 221 235 251 266 277 286 292 298 305 309 311 311 311 312 316 315 317 319 319 316 312 310 309 305 303 302 295 284 267 258 243
191 189 194 217 199 194 199 188 189 189 196 197 205 233 248 253 263 274 282 288 291 297 303 305 306 306 308 309 309 312 314 314 309 306 308 307 302 302 300 297 300 297 265 278
Height
1479 1478 1475 1474 1473 1472 1470 1468 1465 1464 1464 1462 1459 1457 1456 1456 1455 1455 1456 1457 1457 1459 1461 1462 1463 1466 1467 1467 1472 1476 1480 1484 1487 1492 1495 1499 1502 1506 1510 1513 1516 1519 1522 1525
1478 1477 1477 1475 1473 1471 1469 1467 1464 1463 1463 1462 1459 1459 1457 1457 1456 1457 1457 1456 1457 1459 1460 1462 1463 1464 1465 1466 1469 1473 1478 1481 1485 1488 1492 1496 1500 1503 1507 1510 1513 1516 1519 1521
1477 1479 1478 1475 1472 1470 1469 1468 1465 1465 1463 1461 1460 1457 1457 1457 1457 1457 1457 1457 1458 1459 1461 1462 1463 1465 1465 1466 1468 1472 1476 1479 1483 1485 1489 1493 1497 1500 1503 1506 1508 1512 1515 1517
1478 1479 1478 1474 1473 1470 1469 1469 1467 1465 1463 1462 1461 1457 1457 1458 1457 1458 1458 1458 1459 1460 1462 1463 1464 1466 1466 1467 1469 1471 1474 1477 1480 1483 1486 1489 1493 1495 1498 1501 1504 1507 1510 1513
1479 1480 1478 1475 1475 1473 1471 1471 1468 1466 1464 1464 1462 1459 1458 1459 1458 1459 1460 1461 1461 1462 1462 1463 1464 1466 1466 1466 1467 1469 1471 1474 1477 1480 1483 1485 1488 1491 1494 1497 1500 1503 1505 1508
1481 1482 1481 1478 1477 1475 1473 1470 1468 1466 1463 1465 1465 1461 1460 1462 1463 1463 1463 1463 1463 1463 1463 1464 1465 1465 1465 1465 1467 1468 1469 1472 1475 1477 1480 1483 1485 1487 1489 1492 1495 1498 1500 1503
1480 1481 1481 1480 1476 1475 1473 1470 1464 1462 1462 1463 1467 1464 1465 1467 1466 1466 1465 1465 1465 1464 1464 1464 1464 1463 1464 1465 1466 1468 1470 1471 1473 1474 1477 1480 1482 1483 1485 1487 1489 1492 1495 1497
1478 1478 1481 1481 1479 1476 1474 1473 1469 1463 1461 1462 1466 1464 1467 1468 1468 1468 1468 1467 1467 1466 1465 1465 1464 1463 1464 1465 1466 1467 1469 1470 1471 1472 1475 1477 1479 1480 1481 1483 1485 1487 1490 1492
1477 1480 1482 1482 1481 1479 1475 1474 1476 1472 1472 1467 1464 1467 1467 1469 1468 1469 1469 1469 1468 1467 1466 1466 1465 1464 1465 1465 1466 1468 1469 1470 1471 1472 1473 1474 1475 1476 1477 1478 1480 1483 1485 1488
1483 1483 1482 1482 1481 1481 1479 1477 1474 1472 1468 1463 1465 1466 1467 1469 1470 1470 1471 1470 1470 1469 1468 1466 1465 1465 1465 1465 1466 1467 1468 1469 1469 1470 1471 1471 1472 1473 1474 1476 1477 1479 1481 1483
1484 1482 1483 1481 1481 1480 1480 1479 1476 1474 1472 1465 1463 1468 1472 1472 1473 1473 1473 1473 1471 1470 1469 1467 1467 1466 1466 1466 1467 1467 1467 1468 1468 1468 1469 1469 1470 1470 1471 1473 1474 1476 1477 1478
1484 1481 1481 1482 1484 1484 1481 1479 1478 1473 1476 1473 1467 1474 1475 1475 1475 1475 1475 1474 1472 1471 1470 1469 1468 1467 1467 1466 1466 1466 1466 1467 1467 1467 1467 1467 1467 1467 1468 1470 1471 1472 1473 1474
1484 1482 1478 1477 1483 1484 1482 1480 1480 1478 1476 1473 1469 1475 1476 1477 1477 1477 1476 1475 1473 1472 1471 1469 1469 1468 1467 1467 1466 1466 1466 1466 1466 1466 1465 1465 1465 1465 1465 1466 1467 1468 1469 1470
1484 1482 1478 1474 1475 1480 1480 1480 1480 1479 1476 1474 1474 1474 1477 1478 1478 1478 1477 1476 1475 1473 1472 1471 1469 1468 1467 1467 1466 1466 1465 1465 1464 1464 1463 1463 1463 1462 1462 1463 1464 1465 1465 1466
1483 1481 1482 1483 1483 1482 1481 1480 1481 1480 1477 1475 1475 1476 1478 1479 1480 1480 1478 1477 1475 1474 1473 1472 1470 1469 1468 1467 1466 1465 1464 1463 1462 1462 1461 1460 1460 1460 1460 1460 1460 1461 1461 1462
1483 1482 1482 1482 1483 1482 1482 1480 1480 1480 1479 1478 1477 1479 1480 1481 1481 1481 1480 1478 1477 1475 1474 1472 1471 1470 1468 1466 1465 1464 1462 1461 1460 1459 1458 1458 1457 1457 1457 1456 1456 1457 1457 1458
1483 1482 1480 1478 1482 1480 1477 1478 1478 1479 1480 1479 1478 1479 1481 1481 1481 1482 1481 1480 1478 1477 1475 1473 1471 1470 1468 1466 1464 1462 1461 1460 1458 1457 1456 1455 1454 1454 1453 1453 1453 1453 1453 1454
1484 1483 1481 1479 1480 1479 1476 1480 1479 1479 1480 1480 1480 1481 1481 1482 1482 1482 1481 1480 1478 1476 1474 1472 1471 1469 1467 1465 1463 1461 1460 1458 1456 1455 1454 1452 1451 1450 1450 1449 1449 1449 1449 1449
1487 1484 1482 1480 1475 1472 1476 1479 1480 1479 1478 1480 1480 1481 1482 1482 1481 1480 1480 1479 1478 1476 1474 1472 1470 1467 1465 1463 1462 1460 1458 1456 1455 1453 1451 1450 1448 1447 1446 1446 1445 1445 1445 1445
1488 1486 1483 1481 1477 1472 1471 1478 1480 1481 1476 1478 1479 1480 1481 1481 1479 1479 1479 1478 1476 1474 1472 1470 1468 1465 1463 1461 1459 1458 1456 1454 1452 1451 1449 1447 1446 1444 1443 1442 1441 1441 1441 1441
1485 1484 1482 1479 1476 1468 1474 1478 1480 1477 1471 1477 1478 1479 1480 1480 1480 1480 1477 1476 1475 1473 1470 1468 1466 1464 1461 1459 1457 1455 1454 1452 1450 1448 1446 1445 1443 1442 1440 1439 1438 1438 1438 1438
1476 1476 1478 1476 1475 1471 1474 1476 1475 1472 1474 1475 1477 1478 1478 1478 1478 1477 1476 1474 1472 1470 1468 1466 1464 1462 1460 1458 1455 1453 1451 1449 1447 1445 1443 1442 1440 1439 1437 1436 1435 1434 1434 1434
1475 1472 1470 1470 1469 1470 1472 1472 1473 1473 1474 1475 1476 1476 1476 1476 1476 1475 1473 1472 1470 1468 1466 1464 1462 1460 1458 1456 1453 1451 1448 1446 1444 1442 1440 1439 1437 1435 1434 1433 1432 1431 1431 1431
1473 1475 1473 1471 1467 1469 1470 1470 1471 1472 1473 1473 1474 1474 1474 1474 1474 1473 1471 1470 1468 1466 1464 1462 1460 1457 1455 1453 1450 1448 1446 1443 1441 1439 1437 1435 1434 1432 1431 1430 1429 1429 1428 1428
1465 1470 1469 1467 1466 1467 1467 1467 1468 1470 1471 1472 1472 1473 1472 1472 1471 1470 1469 1467 1465 1464 1462 1459 1457 1455 1452 1450 1447 1445 1443 1440 1438 1436 1434 1432 1431 1429 1428 1427 1427 1426 1426 1425
1461 1461 1461 1457 1458 1460 1461 1462 1465 1467 1468 1469 1470 1470 1470 1469 1468 1467 1466 1464 1462 1461 1458 1456 1454 1452 1449 1447 1444 1442 1440 1437 1435 1433 1431 1429 1428 1426 1425 1424 1424 1423 1423 1423